Pine Ridge, SD

5:34 PM MDT on April 24, 2017 (GMT -0600)
Pine Ridge

Weather History for KIEN - September, 2013

Change the Weather History Date:

Wednesday, September 4, 2013

  Actual Average Record
Temperature  
Mean Temperature 77 °F 66 °F  
Max Temperature 95 °F 83 °F 105 °F (1998)
Min Temperature 58 °F 49 °F 35 °F (2011)
Degree Days  
Heating Degree Days 0 3  
Month to date heating degree days 1 11  
Since 1 July heating degree days 3 48  
Cooling Degree Days 12 4  
Month to date cooling degree days 37 18  
Year to date cooling degree days 689 666  
Growing Degree Days 26 (Base 50)    
Moisture  
Dew Point 61 °F    
Average Humidity 65    
Maximum Humidity 97    
Minimum Humidity 33    
Precipitation  
Precipitation T in 0.05 in 0.62 in (2016)
Month to date precipitation T 0.22  
Year to date precipitation 14.27 14.01  
Sea Level Pressure  
Sea Level Pressure 29.99 in    
Wind  
Wind Speed 5 mph (NE)    
Max Wind Speed 16 mph    
Max Gust Speed 23 mph    
Visibility 10 miles    
Events Rain    
T = Trace of Precipitation, MM = Missing Value Source: NWS Daily Summary

Daily Weather History Graph

Daily Weather History Graph

Search for Another Location

Airport or City:

Trip Planner

Search our weather history database for the weather conditions in past years. The results will help you decide how hot, cold, wet, or windy it might be!

Date:

Astronomy

Sep. 04, 2013 Rise Set
Actual Time 6:18 AM MDT 7:19 PM MDT
Civil Twilight 5:49 AM MDT 7:47 PM MDT
Nautical Twilight 5:14 AM MDT 8:22 PM MDT
Astronomical Twilight 4:38 AM MDT 8:58 PM MDT
Moon 5:32 AM MDT (9/4) 6:38 PM MDT (9/4)
Length of Visible Light 13h 58m
Length of Day
13h 01m
Waning Crescent, 1% of the Moon is Illuminated
Sep 4
Waning Crescent
Sep 5
New
Sep 12
First Quarter
Sep 19
Full
Sep 26
Last Quarter

Hourly Weather History & Observations

Time (MDT) Temp. Heat Index Dew Point Humidity Pressure Visibility Wind Dir Wind Speed Gust Speed Precip Events Conditions
12:52 AM 66.0 °F - 60.1 °F 81% 29.92 in 10.0 mi Calm Calm - N/A   Clear
1:52 AM 62.1 °F - 59.0 °F 90% 29.92 in 10.0 mi NW 3.5 mph - N/A   Clear
2:52 AM 62.1 °F - 59.0 °F 90% 29.93 in 10.0 mi Calm Calm - N/A   Clear
3:52 AM 61.0 °F - 59.0 °F 93% 30.04 in 10.0 mi Calm Calm - N/A   Clear
4:52 AM 59.0 °F - 57.0 °F 93% 29.96 in 10.0 mi SSW 4.6 mph - N/A   Clear
5:52 AM 59.0 °F - 57.0 °F 93% 29.98 in 10.0 mi Calm Calm - N/A   Clear
6:52 AM 60.1 °F - 57.9 °F 93% 30.01 in 10.0 mi Calm Calm - N/A   Clear
7:52 AM 66.0 °F - 60.1 °F 81% 30.02 in 10.0 mi Calm Calm - N/A   Clear
8:52 AM 72.0 °F - 60.1 °F 66% 30.03 in 10.0 mi WNW 4.6 mph - N/A   Clear
9:52 AM 78.1 °F - 61.0 °F 56% 30.03 in 10.0 mi NW 5.8 mph - N/A   Clear
10:52 AM 81.0 °F 81.7 °F 61.0 °F 50% 30.03 in 10.0 mi Variable 4.6 mph - N/A   Clear
11:52 AM 86.0 °F 86.3 °F 62.1 °F 44% 30.01 in 10.0 mi NNW 5.8 mph - N/A   Clear
12:52 PM 90.0 °F 90.6 °F 63.0 °F 40% 30.00 in 10.0 mi Variable 3.5 mph - N/A   Clear
1:52 PM 91.9 °F 92.9 °F 63.0 °F 38% 29.99 in 10.0 mi NE 6.9 mph - N/A   Clear
2:52 PM 93.0 °F 94.2 °F 63.0 °F 37% 29.98 in 10.0 mi East 8.1 mph - N/A   Clear
3:52 PM 93.9 °F 94.0 °F 61.0 °F 33% 29.96 in 10.0 mi ENE 8.1 mph - N/A   Clear
4:52 PM 91.0 °F 90.9 °F 61.0 °F 36% 29.98 in 10.0 mi ENE 8.1 mph - N/A   Clear
5:52 PM 89.1 °F 90.0 °F 63.0 °F 42% 29.98 in 10.0 mi East 5.8 mph - N/A   Clear
6:52 PM 87.1 °F 87.5 °F 62.1 °F 43% 29.96 in 10.0 mi East 6.9 mph - N/A   Clear
7:52 PM 78.1 °F - 64.0 °F 62% 29.99 in 10.0 mi East 6.9 mph - N/A   Clear
8:52 PM 75.9 °F - 64.0 °F 67% 30.00 in 10.0 mi ENE 8.1 mph - N/A   Clear
9:52 PM 75.9 °F - 64.0 °F 67% 30.02 in 10.0 mi ENE 4.6 mph - N/A   Clear
10:52 PM 75.0 °F - 64.0 °F 69% 30.02 in 10.0 mi NE 6.9 mph - 0.00 in Rain Light Rain
11:52 PM 73.9 °F - 64.0 °F 71% 30.00 in 10.0 mi East 6.9 mph - N/A   Scattered Clouds